Terminal Aerodrome Forecast
Issued by NWS

Home | Current Version | Previous Version | Text Only | Print | Product List | Glossary On
Versions: 1 2 3 4 5 6 7 8 9 10 11 12 13 14
000
FTUS45 KTFX 310500
TAFBZN
TAF
KBZN 310537Z 3106/0106 VRB06KT P6SM SCT200
     FM311500 VRB06KT P6SM SCT035 OVC070
     FM311900 32006KT 3SM -SN OVC035
      TEMPO 3120/3124 3/4SM -SN OVC010
     FM010000 31006KT 1SM BR OVC015=

USA.gov is the U.S. government's official web portal to all federal, state and local government web resources and services.